Location: Brachbach
(49.1847°N, 9.7240°E)
Time: 02:25:59
(UTC+00:00)

ARIANE 6 FM1 Upper Stage - Pass Details

Date: 26 January 2026
Orbit: 522 x 609 km, 62.0° (Epoch: 13 February)

Event Time Altitude Azimuth Distance (km) Brightness Sun altitude
Rises 19:12:38 0° 266° (W) 2,689 7.3 -30.0°
Reaches altitude 10° 19:15:14 10° 282° (WNW) 1,788 6.1 -30.4°
Enters shadow 19:17:21 20° 312° (NW) 1,272 5.0 -30.8°
